Time,TemperatureF,DewpointF,PressureIn,WindDirection,WindDirectionDegrees,WindSpeedMPH,WindSpeedGustMPH,Humidity,HourlyPrecipIn,Conditions,Clouds,dailyrainin,SoftwareType,DateUTC
2013-12-11 00:02:00,33.8,33.8,30.33,NNE,25,0.0,0.0,100,0.00,,,0.00,Wunderground v.1.15,2013-12-11 08:02:00,
2013-12-11 00:07:00,33.8,33.8,30.33,North,11,0.0,0.0,100,0.00,,,0.00,Wunderground v.1.15,2013-12-11 08:07:00,
2013-12-11 00:17:00,33.8,33.8,30.33,North,0,0.0,0.0,100,0.00,,,0.00,Wunderground v.1.15,2013-12-11 08:17:00,
2013-12-11 00:27:00,33.7,33.7,30.33,North,0,0.0,0.0,100,0.00,,,0.00,Wunderground v.1.15,2013-12-11 08:27:00,
2013-12-11 00:32:00,33.7,33.7,30.33,North,0,0.0,0.0,100,0.00,,,0.00,Wunderground v.1.15,2013-12-11 08:32:00,
2013-12-11 00:42:00,34.0,34.0,30.33,ENE,78,0.0,0.0,100,0.00,,,0.00,Wunderground v.1.15,2013-12-11 08:42:00,
2013-12-11 00:52:00,34.1,34.1,30.32,ENE,78,0.0,0.0,100,0.00,,,0.00,Wunderground v.1.15,2013-12-11 08:52:00,
2013-12-11 00:57:00,34.0,34.0,30.32,ENE,78,0.0,0.0,100,0.00,,,0.00,Wunderground v.1.15,2013-12-11 08:57:00,
2013-12-11 01:07:00,34.0,34.0,30.32,ENE,78,0.0,0.0,100,0.00,,,0.00,Wunderground v.1.15,2013-12-11 09:07:00,
2013-12-11 01:17:00,34.0,34.0,30.31,ENE,78,0.0,0.0,100,0.00,,,0.00,Wunderground v.1.15,2013-12-11 09:17:00,
2013-12-11 01:27:00,34.0,34.0,30.31,East,79,0.0,0.0,100,0.00,,,0.00,Wunderground v.1.15,2013-12-11 09:27:00,
2013-12-11 01:37:00,34.0,34.0,30.31,East,79,0.0,0.0,100,0.00,,,0.00,Wunderground v.1.15,2013-12-11 09:37:00,
2013-12-11 01:42:00,34.0,34.0,30.31,East,79,0.0,0.0,100,0.00,,,0.00,Wunderground v.1.15,2013-12-11 09:42:00,
2013-12-11 01:52:00,34.0,34.0,30.31,East,82,0.0,0.0,100,0.00,,,0.00,Wunderground v.1.15,2013-12-11 09:52:00,
2013-12-11 01:57:00,34.0,34.0,30.31,East,92,0.0,0.0,100,0.00,,,0.00,Wunderground v.1.15,2013-12-11 09:57:00,
2013-12-11 02:07:00,34.1,34.1,30.31,East,92,0.0,0.0,100,0.00,,,0.00,Wunderground v.1.15,2013-12-11 10:07:00,
2013-12-11 02:12:00,34.3,34.3,30.31,East,92,0.0,0.0,100,0.00,,,0.00,Wunderground v.1.15,2013-12-11 10:12:00,
2013-12-11 02:22:00,34.3,34.3,30.31,East,93,0.0,0.0,100,0.00,,,0.00,Wunderground v.1.15,2013-12-11 10:22:00,
2013-12-11 02:27:00,34.3,34.3,30.31,East,93,0.0,0.0,100,0.00,,,0.00,Wunderground v.1.15,2013-12-11 10:27:00,
2013-12-11 02:37:00,34.3,34.3,30.31,East,93,0.0,0.0,100,0.00,,,0.00,Wunderground v.1.15,2013-12-11 10:37:00,
2013-12-11 02:42:00,34.3,34.3,30.31,East,93,0.0,0.0,100,0.00,,,0.00,Wunderground v.1.15,2013-12-11 10:42:00,
2013-12-11 02:52:00,34.3,34.3,30.31,East,92,0.0,0.0,100,0.00,,,0.00,Wunderground v.1.15,2013-12-11 10:52:00,
2013-12-11 02:57:00,34.3,34.3,30.31,East,92,0.0,0.0,100,0.00,,,0.00,Wunderground v.1.15,2013-12-11 10:57:00,
2013-12-11 03:07:00,34.4,34.4,30.31,East,92,0.0,0.0,100,0.00,,,0.00,Wunderground v.1.15,2013-12-11 11:07:00,
2013-12-11 03:12:00,34.4,34.4,30.31,East,86,0.0,0.0,100,0.00,,,0.00,Wunderground v.1.15,2013-12-11 11:12:00,
2013-12-11 03:22:00,34.4,34.4,30.31,ENE,78,0.0,0.0,100,0.00,,,0.00,Wunderground v.1.15,2013-12-11 11:22:00,
2013-12-11 03:27:00,34.3,34.3,30.31,NE,56,0.0,0.0,100,0.00,,,0.00,Wunderground v.1.15,2013-12-11 11:27:00,
2013-12-11 03:37:00,34.4,34.4,30.29,NE,44,0.0,0.0,100,0.00,,,0.00,Wunderground v.1.15,2013-12-11 11:37:00,
2013-12-11 03:42:00,34.4,34.4,30.29,NE,44,0.0,0.0,100,0.00,,,0.00,Wunderground v.1.15,2013-12-11 11:42:00,
2013-12-11 03:52:00,34.4,34.4,30.30,NE,44,0.0,0.0,100,0.00,,,0.00,Wunderground v.1.15,2013-12-11 11:52:00,
2013-12-11 04:02:00,34.3,34.3,30.30,NE,44,0.0,0.0,100,0.00,,,0.00,Wunderground v.1.15,2013-12-11 12:02:00,
2013-12-11 04:07:00,34.4,34.4,30.30,NE,44,0.0,0.0,100,0.00,,,0.00,Wunderground v.1.15,2013-12-11 12:07:00,
2013-12-11 04:12:00,34.4,34.4,30.30,NE,44,0.0,0.0,100,0.00,,,0.00,Wunderground v.1.15,2013-12-11 12:12:00,
2013-12-11 04:22:00,34.3,34.3,30.29,NE,44,0.0,0.0,100,0.00,,,0.00,Wunderground v.1.15,2013-12-11 12:22:00,
2013-12-11 04:27:00,34.4,34.4,30.29,NE,44,0.0,0.0,100,0.00,,,0.00,Wunderground v.1.15,2013-12-11 12:27:00,
2013-12-11 04:37:00,34.1,34.1,30.28,NE,44,0.0,0.0,100,0.00,,,0.00,Wunderground v.1.15,2013-12-11 12:37:00,
2013-12-11 04:47:00,34.1,34.1,30.28,NE,44,0.0,0.0,100,0.00,,,0.00,Wunderground v.1.15,2013-12-11 12:47:00,
2013-12-11 04:52:00,34.1,34.1,30.28,NE,44,0.0,0.0,100,0.00,,,0.00,Wunderground v.1.15,2013-12-11 12:52:00,
2013-12-11 05:02:00,34.0,34.0,30.28,NE,44,0.0,0.0,100,0.00,,,0.00,Wunderground v.1.15,2013-12-11 13:02:00,
2013-12-11 05:12:00,33.8,33.8,30.28,NE,44,0.0,0.0,100,0.00,,,0.00,Wunderground v.1.15,2013-12-11 13:12:00,
2013-12-11 05:22:00,33.8,33.8,30.28,NE,44,0.0,0.0,100,0.00,,,0.00,Wunderground v.1.15,2013-12-11 13:22:00,
2013-12-11 05:32:00,33.8,33.8,30.28,NE,44,0.0,0.0,100,0.00,,,0.00,Wunderground v.1.15,2013-12-11 13:32:00,
2013-12-11 05:37:00,33.8,33.8,30.28,NE,44,0.0,0.0,100,0.00,,,0.00,Wunderground v.1.15,2013-12-11 13:37:00,
2013-12-11 05:47:00,33.8,33.8,30.28,NE,44,0.0,0.0,100,0.00,,,0.00,Wunderground v.1.15,2013-12-11 13:47:00,
2013-12-11 05:57:00,33.8,33.8,30.28,NE,47,0.0,0.0,100,0.00,,,0.00,Wunderground v.1.15,2013-12-11 13:57:00,
2013-12-11 06:02:00,33.7,33.7,30.28,NE,48,0.0,0.0,100,0.00,,,0.00,Wunderground v.1.15,2013-12-11 14:02:00,
2013-12-11 06:07:00,33.7,33.7,30.28,NE,48,0.0,0.0,100,0.00,,,0.00,Wunderground v.1.15,2013-12-11 14:07:00,
2013-12-11 06:17:00,33.7,33.7,30.28,NE,48,0.0,0.0,100,0.00,,,0.00,Wunderground v.1.15,2013-12-11 14:17:00,
2013-12-11 06:22:00,33.7,33.7,30.28,NE,48,0.0,0.0,100,0.00,,,0.00,Wunderground v.1.15,2013-12-11 14:22:00,
2013-12-11 06:32:00,33.8,33.8,30.28,NE,48,0.0,0.0,100,0.00,,,0.00,Wunderground v.1.15,2013-12-11 14:32:00,
2013-12-11 06:42:00,33.8,33.8,30.28,East,86,0.0,0.0,100,0.00,,,0.00,Wunderground v.1.15,2013-12-11 14:42:00,
2013-12-11 06:47:00,33.8,33.8,30.28,East,92,0.0,0.0,100,0.00,,,0.00,Wunderground v.1.15,2013-12-11 14:47:00,
2013-12-11 06:57:00,33.8,33.8,30.28,East,92,0.0,0.0,100,0.00,,,0.00,Wunderground v.1.15,2013-12-11 14:57:00,
2013-12-11 07:02:00,33.8,33.8,30.27,East,92,0.0,0.0,100,0.00,,,0.00,Wunderground v.1.15,2013-12-11 15:02:00,
2013-12-11 07:07:00,33.8,33.8,30.27,East,86,0.0,0.0,100,0.00,,,0.00,Wunderground v.1.15,2013-12-11 15:07:00,
2013-12-11 07:17:00,33.8,33.8,30.27,East,85,0.0,0.0,100,0.00,,,0.00,Wunderground v.1.15,2013-12-11 15:17:00,
2013-12-11 07:22:00,34.0,34.0,30.27,East,85,0.0,0.0,100,0.00,,,0.00,Wunderground v.1.15,2013-12-11 15:22:00,
2013-12-11 07:32:00,34.0,34.0,30.27,East,85,0.0,0.0,100,0.00,,,0.00,Wunderground v.1.15,2013-12-11 15:32:00,
2013-12-11 07:42:00,34.0,34.0,30.27,East,85,0.0,0.0,100,0.00,,,0.00,Wunderground v.1.15,2013-12-11 15:42:00,
2013-12-11 07:47:00,34.0,34.0,30.27,East,85,0.0,0.0,100,0.00,,,0.00,Wunderground v.1.15,2013-12-11 15:47:00,
2013-12-11 07:57:00,33.8,33.8,30.27,East,85,0.0,0.0,100,0.00,,,0.00,Wunderground v.1.15,2013-12-11 15:57:00,
2013-12-11 08:02:00,34.0,34.0,30.27,East,85,0.0,0.0,100,0.00,,,0.00,Wunderground v.1.15,2013-12-11 16:02:00,
2013-12-11 08:07:00,33.8,33.8,30.27,East,85,0.0,0.0,100,0.00,,,0.00,Wunderground v.1.15,2013-12-11 16:07:00,
2013-12-11 08:17:00,33.8,33.8,30.27,SE,140,0.0,0.0,100,0.00,,,0.00,Wunderground v.1.15,2013-12-11 16:17:00,
2013-12-11 08:22:00,33.8,33.8,30.27,SE,133,0.0,0.0,100,0.00,,,0.00,Wunderground v.1.15,2013-12-11 16:22:00,
2013-12-11 08:32:00,33.8,33.8,30.28,SE,134,0.0,0.0,100,0.00,,,0.00,Wunderground v.1.15,2013-12-11 16:32:00,
2013-12-11 08:37:00,33.8,33.8,30.28,SE,133,0.0,0.0,100,0.00,,,0.00,Wunderground v.1.15,2013-12-11 16:37:00,
2013-12-11 08:47:00,33.8,33.8,30.28,SE,133,0.0,0.0,100,0.00,,,0.00,Wunderground v.1.15,2013-12-11 16:47:00,
2013-12-11 08:57:00,33.7,33.7,30.28,SE,140,0.0,0.0,100,0.00,,,0.00,Wunderground v.1.15,2013-12-11 16:57:00,
2013-12-11 09:02:00,33.7,33.7,30.28,SE,141,0.0,0.0,100,0.00,,,0.00,Wunderground v.1.15,2013-12-11 17:02:00,
2013-12-11 09:07:00,33.7,33.7,30.28,SE,141,0.0,0.0,100,0.00,,,0.00,Wunderground v.1.15,2013-12-11 17:07:00,
2013-12-11 09:17:00,33.8,33.8,30.28,South,178,0.0,0.0,100,0.00,,,0.00,Wunderground v.1.15,2013-12-11 17:17:00,
2013-12-11 09:22:00,33.8,33.8,30.28,South,178,0.0,0.0,100,0.00,,,0.00,Wunderground v.1.15,2013-12-11 17:22:00,
2013-12-11 09:32:00,33.8,33.8,30.28,South,178,0.0,0.0,100,0.00,,,0.00,Wunderground v.1.15,2013-12-11 17:32:00,
2013-12-11 09:37:00,34.0,34.0,30.28,South,176,0.0,0.0,100,0.00,,,0.00,Wunderground v.1.15,2013-12-11 17:37:00,
2013-12-11 09:47:00,34.0,34.0,30.28,SSE,148,0.0,0.0,100,0.00,,,0.00,Wunderground v.1.15,2013-12-11 17:47:00,
2013-12-11 09:52:00,34.0,34.0,30.28,SSE,148,0.0,0.0,100,0.00,,,0.00,Wunderground v.1.15,2013-12-11 17:52:00,
2013-12-11 10:02:00,34.1,34.1,30.28,SSE,161,0.0,0.0,100,0.00,,,0.00,Wunderground v.1.15,2013-12-11 18:02:00,
2013-12-11 10:07:00,34.3,34.3,30.28,SSE,160,0.0,0.0,100,0.00,,,0.00,Wunderground v.1.15,2013-12-11 18:07:00,
2013-12-11 10:12:00,34.1,34.1,30.28,SSE,158,0.0,0.0,100,0.00,,,0.00,Wunderground v.1.15,2013-12-11 18:12:00,
2013-12-11 10:22:00,34.1,34.1,30.28,SSE,152,0.0,0.0,100,0.00,,,0.00,Wunderground v.1.15,2013-12-11 18:22:00,
2013-12-11 10:32:00,34.1,34.1,30.28,SSE,151,0.0,0.0,100,0.00,,,0.00,Wunderground v.1.15,2013-12-11 18:32:00,
2013-12-11 10:42:00,34.1,34.1,30.28,SSE,152,0.0,0.0,100,0.00,,,0.00,Wunderground v.1.15,2013-12-11 18:42:00,
2013-12-11 10:47:00,34.1,34.1,30.28,SSE,152,0.0,0.0,100,0.00,,,0.00,Wunderground v.1.15,2013-12-11 18:47:00,
2013-12-11 10:57:00,34.3,34.3,30.28,SSE,152,0.0,0.0,100,0.00,,,0.00,Wunderground v.1.15,2013-12-11 18:57:00,
2013-12-11 11:07:00,34.6,34.6,30.28,SSE,151,0.0,0.0,100,0.00,,,0.00,Wunderground v.1.15,2013-12-11 19:07:00,
2013-12-11 11:12:00,34.7,34.7,30.28,SE,133,0.0,0.0,100,0.00,,,0.00,Wunderground v.1.15,2013-12-11 19:12:00,
2013-12-11 11:22:00,34.9,34.9,30.26,SE,131,0.0,0.0,100,0.00,,,0.00,Wunderground v.1.15,2013-12-11 19:22:00,
2013-12-11 11:27:00,35.3,35.3,30.26,SE,131,0.0,0.0,100,0.00,,,0.00,Wunderground v.1.15,2013-12-11 19:27:00,
2013-12-11 11:37:00,35.2,35.2,30.25,SE,133,0.0,0.0,100,0.00,,,0.00,Wunderground v.1.15,2013-12-11 19:37:00,
2013-12-11 11:47:00,35.0,35.0,30.25,SE,143,0.0,0.0,100,0.00,,,0.00,Wunderground v.1.15,2013-12-11 19:47:00,
2013-12-11 11:52:00,34.7,34.7,30.25,SE,143,0.0,0.0,100,0.00,,,0.00,Wunderground v.1.15,2013-12-11 19:52:00,
2013-12-11 12:02:00,35.0,35.0,30.25,SSE,152,0.0,0.0,100,0.00,,,0.00,Wunderground v.1.15,2013-12-11 20:02:00,
2013-12-11 12:07:00,34.9,34.9,30.25,SSE,152,0.0,0.0,100,0.00,,,0.00,Wunderground v.1.15,2013-12-11 20:07:00,
2013-12-11 12:17:00,34.9,34.9,30.23,SSE,152,0.0,0.0,100,0.00,,,0.00,Wunderground v.1.15,2013-12-11 20:17:00,
2013-12-11 12:27:00,35.0,35.0,30.23,SSE,147,0.0,0.0,100,0.00,,,0.00,Wunderground v.1.15,2013-12-11 20:27:00,
2013-12-11 12:32:00,35.3,35.3,30.22,South,172,0.0,0.0,100,0.00,,,0.00,Wunderground v.1.15,2013-12-11 20:32:00,
2013-12-11 12:42:00,35.5,35.5,30.22,SSE,158,0.0,0.0,100,0.00,,,0.00,Wunderground v.1.15,2013-12-11 20:42:00,
2013-12-11 12:52:00,35.3,35.3,30.22,SSE,155,1.0,1.0,100,0.00,,,0.00,Wunderground v.1.15,2013-12-11 20:52:00,
2013-12-11 13:02:00,35.6,35.6,30.22,SSE,152,0.0,1.0,100,0.00,,,0.00,Wunderground v.1.15,2013-12-11 21:02:00,
2013-12-11 13:07:00,35.6,35.6,30.22,South,186,1.0,1.0,100,0.00,,,0.00,Wunderground v.1.15,2013-12-11 21:07:00,
2013-12-11 13:12:00,35.8,35.8,30.22,SSE,150,1.0,1.0,100,0.00,,,0.00,Wunderground v.1.15,2013-12-11 21:12:00,
2013-12-11 13:22:00,35.9,35.9,30.22,SSE,160,1.0,1.0,100,0.00,,,0.00,Wunderground v.1.15,2013-12-11 21:22:00,
2013-12-11 13:32:00,35.5,35.5,30.22,SSE,148,1.0,2.0,100,0.00,,,0.00,Wunderground v.1.15,2013-12-11 21:32:00,
2013-12-11 13:42:00,35.5,35.5,30.22,SSW,208,1.0,1.0,100,0.00,,,0.00,Wunderground v.1.15,2013-12-11 21:42:00,
2013-12-11 13:47:00,35.5,35.5,30.21,South,179,1.0,1.0,100,0.00,,,0.00,Wunderground v.1.15,2013-12-11 21:47:00,
2013-12-11 13:57:00,35.3,35.3,30.21,South,184,1.0,1.0,100,0.00,,,0.00,Wunderground v.1.15,2013-12-11 21:57:00,
2013-12-11 14:07:00,35.5,35.5,30.20,SE,141,1.0,1.0,100,0.00,,,0.00,Wunderground v.1.15,2013-12-11 22:07:00,
2013-12-11 14:12:00,36.0,36.0,30.20,SSE,148,0.0,0.0,100,0.00,,,0.00,Wunderground v.1.15,2013-12-11 22:12:00,
2013-12-11 14:22:00,36.9,36.9,30.20,SE,127,0.0,0.0,100,0.00,,,0.00,Wunderground v.1.15,2013-12-11 22:22:00,
2013-12-11 14:27:00,37.2,37.2,30.20,SSE,157,0.0,0.0,100,0.00,,,0.00,Wunderground v.1.15,2013-12-11 22:27:00,
2013-12-11 14:37:00,38.0,38.0,30.20,SE,145,0.0,0.0,100,0.00,,,0.00,Wunderground v.1.15,2013-12-11 22:37:00,
2013-12-11 14:47:00,38.8,38.8,30.19,SSE,161,0.0,0.0,100,0.00,,,0.00,Wunderground v.1.15,2013-12-11 22:47:00,
2013-12-11 14:52:00,39.1,39.1,30.19,SSE,152,0.0,0.0,100,0.00,,,0.00,Wunderground v.1.15,2013-12-11 22:52:00,
2013-12-11 15:02:00,39.2,38.2,30.19,SSE,162,0.0,3.0,96,0.00,,,0.00,Wunderground v.1.15,2013-12-11 23:02:00,
2013-12-11 15:07:00,39.2,38.2,30.19,SSE,150,0.0,3.0,96,0.00,,,0.00,Wunderground v.1.15,2013-12-11 23:07:00,
2013-12-11 15:17:00,38.9,38.6,30.18,SSE,167,1.0,1.0,99,0.00,,,0.00,Wunderground v.1.15,2013-12-11 23:17:00,
2013-12-11 15:22:00,38.6,38.6,30.18,SE,134,1.0,2.0,100,0.00,,,0.00,Wunderground v.1.15,2013-12-11 23:22:00,
2013-12-11 15:32:00,38.2,38.2,30.18,SSE,160,0.0,3.0,100,0.00,,,0.00,Wunderground v.1.15,2013-12-11 23:32:00,
2013-12-11 15:42:00,37.8,37.8,30.18,SSE,162,0.0,0.0,100,0.00,,,0.00,Wunderground v.1.15,2013-12-11 23:42:00,
2013-12-11 15:47:00,37.8,37.8,30.18,SSE,162,0.0,0.0,100,0.00,,,0.00,Wunderground v.1.15,2013-12-11 23:47:00,
2013-12-11 15:57:00,37.5,37.5,30.18,SSE,162,0.0,0.0,100,0.00,,,0.00,Wunderground v.1.15,2013-12-11 23:57:00,
2013-12-11 16:07:00,37.3,37.3,30.18,SSE,162,0.0,3.0,100,0.00,,,0.00,Wunderground v.1.15,2013-12-12 00:07:00,
2013-12-11 16:12:00,37.3,37.3,30.18,SSE,160,0.0,0.0,100,0.00,,,0.00,Wunderground v.1.15,2013-12-12 00:12:00,
2013-12-11 16:22:00,37.0,37.0,30.18,SSE,160,0.0,0.0,100,0.00,,,0.00,Wunderground v.1.15,2013-12-12 00:22:00,
2013-12-11 16:32:00,36.8,36.8,30.17,SSE,160,0.0,0.0,100,0.00,,,0.00,Wunderground v.1.15,2013-12-12 00:32:00,
2013-12-11 16:42:00,36.6,36.6,30.17,SSE,160,0.0,0.0,100,0.00,,,0.00,Wunderground v.1.15,2013-12-12 00:42:00,
2013-12-11 16:47:00,36.5,36.5,30.17,SSE,160,0.0,0.0,100,0.00,,,0.00,Wunderground v.1.15,2013-12-12 00:47:00,
2013-12-11 16:57:00,36.3,36.3,30.17,SSE,160,0.0,0.0,100,0.00,,,0.00,Wunderground v.1.15,2013-12-12 00:57:00,
2013-12-11 17:07:00,36.3,36.3,30.17,SSE,160,0.0,0.0,100,0.00,,,0.00,Wunderground v.1.15,2013-12-12 01:07:00,
2013-12-11 17:17:00,36.3,36.3,30.16,SSE,160,0.0,0.0,100,0.00,,,0.00,Wunderground v.1.15,2013-12-12 01:17:00,
2013-12-11 17:27:00,36.2,36.2,30.16,SSE,160,0.0,0.0,100,0.00,,,0.00,Wunderground v.1.15,2013-12-12 01:27:00,
2013-12-11 17:37:00,35.9,35.9,30.16,SSE,160,0.0,0.0,100,0.00,,,0.00,Wunderground v.1.15,2013-12-12 01:37:00,
2013-12-11 17:42:00,35.8,35.8,30.16,SSE,160,0.0,0.0,100,0.00,,,0.00,Wunderground v.1.15,2013-12-12 01:42:00,
2013-12-11 17:52:00,35.5,35.5,30.16,SSE,160,0.0,0.0,100,0.00,,,0.00,Wunderground v.1.15,2013-12-12 01:52:00,
2013-12-11 18:02:00,35.3,35.3,30.16,NNE,24,0.0,0.0,100,0.00,,,0.00,Wunderground v.1.15,2013-12-12 02:02:00,
2013-12-11 18:07:00,35.3,35.3,30.16,ENE,72,0.0,0.0,100,0.00,,,0.00,Wunderground v.1.15,2013-12-12 02:07:00,
2013-12-11 18:17:00,35.0,35.0,30.15,SE,133,0.0,0.0,100,0.00,,,0.00,Wunderground v.1.15,2013-12-12 02:17:00,
2013-12-11 18:22:00,35.0,35.0,30.15,SE,137,0.0,7.0,100,0.00,,,0.00,Wunderground v.1.15,2013-12-12 02:22:00,
2013-12-11 18:32:00,35.0,35.0,30.14,SE,140,1.0,1.0,100,0.00,,,0.00,Wunderground v.1.15,2013-12-12 02:32:00,
2013-12-11 18:42:00,34.9,34.9,30.14,ESE,117,0.0,0.0,100,0.00,,,0.00,Wunderground v.1.15,2013-12-12 02:42:00,
2013-12-11 18:47:00,34.7,34.7,30.14,SE,124,0.0,0.0,100,0.00,,,0.00,Wunderground v.1.15,2013-12-12 02:47:00,
2013-12-11 18:57:00,34.7,34.7,30.14,SSE,151,0.0,0.0,100,0.00,,,0.00,Wunderground v.1.15,2013-12-12 02:57:00,
2013-12-11 19:07:00,34.7,34.7,30.14,SE,140,0.0,0.0,100,0.00,,,0.00,Wunderground v.1.15,2013-12-12 03:07:00,
2013-12-11 19:12:00,34.7,34.7,30.14,SE,137,0.0,0.0,100,0.00,,,0.00,Wunderground v.1.15,2013-12-12 03:12:00,
2013-12-11 19:22:00,34.7,34.7,30.14,SSE,148,0.0,0.0,100,0.00,,,0.00,Wunderground v.1.15,2013-12-12 03:22:00,
2013-12-11 19:27:00,34.7,34.7,30.14,SE,144,0.0,0.0,100,0.00,,,0.00,Wunderground v.1.15,2013-12-12 03:27:00,
2013-12-11 19:37:00,34.7,34.7,30.14,ESE,121,0.0,0.0,100,0.00,,,0.00,Wunderground v.1.15,2013-12-12 03:37:00,
2013-12-11 19:47:00,34.7,34.7,30.14,SE,128,0.0,0.0,100,0.00,,,0.00,Wunderground v.1.15,2013-12-12 03:47:00,
2013-12-11 19:57:00,34.6,34.6,30.14,SE,128,0.0,0.0,100,0.00,,,0.00,Wunderground v.1.15,2013-12-12 03:57:00,
2013-12-11 20:02:00,34.6,34.6,30.14,SE,138,0.0,1.0,100,0.00,,,0.00,Wunderground v.1.15,2013-12-12 04:02:00,
2013-12-11 20:07:00,34.6,34.6,30.14,SE,130,0.0,1.0,100,0.00,,,0.00,Wunderground v.1.15,2013-12-12 04:07:00,
2013-12-11 20:17:00,34.4,34.4,30.14,SE,130,0.0,0.0,100,0.00,,,0.00,Wunderground v.1.15,2013-12-12 04:17:00,
2013-12-11 20:22:00,34.3,34.3,30.14,SE,130,0.0,0.0,100,0.00,,,0.00,Wunderground v.1.15,2013-12-12 04:22:00,
2013-12-11 20:32:00,34.1,34.1,30.14,SE,130,0.0,0.0,100,0.00,,,0.00,Wunderground v.1.15,2013-12-12 04:32:00,
2013-12-11 20:42:00,34.1,34.1,30.14,SE,134,0.0,0.0,100,0.00,,,0.00,Wunderground v.1.15,2013-12-12 04:42:00,
2013-12-11 20:52:00,34.1,34.1,30.13,SE,143,0.0,0.0,100,0.00,,,0.00,Wunderground v.1.15,2013-12-12 04:52:00,
2013-12-11 20:57:00,34.0,34.0,30.13,SE,143,0.0,0.0,100,0.00,,,0.00,Wunderground v.1.15,2013-12-12 04:57:00,
2013-12-11 21:02:00,34.0,34.0,30.14,SE,143,0.0,1.0,100,0.00,,,0.00,Wunderground v.1.15,2013-12-12 05:02:00,
2013-12-11 21:07:00,33.8,33.8,30.14,SE,143,0.0,1.0,100,0.00,,,0.00,Wunderground v.1.15,2013-12-12 05:07:00,
2013-12-11 21:12:00,33.8,33.8,30.14,SE,143,0.0,0.0,100,0.00,,,0.00,Wunderground v.1.15,2013-12-12 05:12:00,
2013-12-11 21:22:00,33.8,33.8,30.14,SE,143,0.0,0.0,100,0.00,,,0.00,Wunderground v.1.15,2013-12-12 05:22:00,
2013-12-11 21:27:00,33.7,33.7,30.14,SE,143,0.0,0.0,100,0.00,,,0.00,Wunderground v.1.15,2013-12-12 05:27:00,
2013-12-11 21:32:00,33.7,33.7,30.13,SE,143,0.0,0.0,100,0.00,,,0.00,Wunderground v.1.15,2013-12-12 05:32:00,
2013-12-11 21:37:00,33.7,33.7,30.13,SE,143,0.0,0.0,100,0.00,,,0.00,Wunderground v.1.15,2013-12-12 05:37:00,
2013-12-11 21:47:00,33.5,33.5,30.14,SE,140,0.0,0.0,100,0.00,,,0.00,Wunderground v.1.15,2013-12-12 05:47:00,
2013-12-11 21:57:00,33.7,33.7,30.14,SE,140,0.0,0.0,100,0.00,,,0.00,Wunderground v.1.15,2013-12-12 05:57:00,
2013-12-11 22:02:00,33.7,33.7,30.13,SE,140,0.0,0.0,100,0.00,,,0.00,Wunderground v.1.15,2013-12-12 06:02:00,
2013-12-11 22:07:00,33.7,33.7,30.13,SE,140,0.0,0.0,100,0.00,,,0.00,Wunderground v.1.15,2013-12-12 06:07:00,
2013-12-11 22:17:00,33.7,33.7,30.13,SE,140,0.0,0.0,100,0.00,,,0.00,Wunderground v.1.15,2013-12-12 06:17:00,
2013-12-11 22:27:00,33.5,33.5,30.13,SE,140,0.0,0.0,100,0.00,,,0.00,Wunderground v.1.15,2013-12-12 06:27:00,
2013-12-11 22:37:00,33.5,33.5,30.13,SSE,150,0.0,0.0,100,0.00,,,0.00,Wunderground v.1.15,2013-12-12 06:37:00,
2013-12-11 22:42:00,33.5,33.5,30.13,SSE,150,0.0,0.0,100,0.00,,,0.00,Wunderground v.1.15,2013-12-12 06:42:00,
2013-12-11 22:52:00,33.4,33.4,30.13,SE,137,0.0,0.0,100,0.00,,,0.00,Wunderground v.1.15,2013-12-12 06:52:00,
2013-12-11 23:02:00,33.2,33.2,30.13,SE,137,0.0,0.0,100,0.00,,,0.00,Wunderground v.1.15,2013-12-12 07:02:00,
2013-12-11 23:07:00,33.2,33.2,30.13,SE,137,0.0,0.0,100,0.00,,,0.00,Wunderground v.1.15,2013-12-12 07:07:00,
2013-12-11 23:17:00,33.2,33.2,30.13,SE,137,0.0,0.0,100,0.00,,,0.00,Wunderground v.1.15,2013-12-12 07:17:00,
2013-12-11 23:22:00,33.2,33.2,30.13,SE,137,0.0,0.0,100,0.00,,,0.00,Wunderground v.1.15,2013-12-12 07:22:00,
2013-12-11 23:32:00,33.5,33.5,30.13,East,85,0.0,0.0,100,0.00,,,0.00,Wunderground v.1.15,2013-12-12 07:32:00,
2013-12-11 23:37:00,33.7,33.7,30.13,East,85,0.0,0.0,100,0.00,,,0.00,Wunderground v.1.15,2013-12-12 07:37:00,
2013-12-11 23:47:00,33.7,33.7,30.12,East,85,0.0,0.0,100,0.00,,,0.00,Wunderground v.1.15,2013-12-12 07:47:00,
2013-12-11 23:57:00,33.5,33.5,30.12,ESE,113,0.0,0.0,100,0.00,,,0.00,Wunderground v.1.15,2013-12-12 07:57:00,